FENGYUN 1C DEB, 31923

Orbit data source: Space-Track

FENGYUN 1C DEB, 31923 is space debris in SSO originally from a launch on Mon, 10 May 1999 UTC launched from the Taiyaun Space Center, China (TSC). Fengyun 1C debris stems from the Chinese weather satellite Fengyun-1C, which was intentionally destroyed by a Chinese anti-satellite missile in 2007. This event dramatically increased the amount of space debris, with thousands of trackable fragments posing hazards to satellites and human spaceflight. The Fengyun 1C debris cloud has become a focal point in discussions about space sustainability and the need for international regulations to prevent the creation of new debris.

Loading next visibility...
Identifier
31923, 1999-025CMA
Orbit
SSO
Country
Flag of CNCN / PRC
Related business
Manufacturer
Unknown
Mission
Spacecraft
Bus & Motor
Unknown
Mass
Unknown
Launch date (UTC)
1999-05-10 (27 years ago)
Launch vehicle
Unknown
Launch site
Taiyaun Space Center, China (TSC)
Object type
Payload
Rocket body
Debris
Shape & HBR
Unknown shape, 1.1 m
Radar Cross Section
Medium (>0.1 m² and <1 m²)

Expand to show TLE details & history
Last TLE update: 20 hours ago

TLE from 20 hours ago
0 FENGYUN 1C DEB
1 31923U 99025CMA 26235.96807831  .00000195  00000-0  25008-3 0  9996
2 31923  98.4262 298.1546 0297781   1.4376 358.7556 13.55415846670780
Epoch: 2026-08-23T23:14Z
TLE epoch observation values (Epoch: 2026-08-23T23:14:01.965Z)
Latitude
-0.00007°
Longitude
-22.61011°
Altitude
833.982 km
Speed
7.546 km/s
True Right ascension
19h 52m 37s
True Declination
0° 00' 00"
Sunlit
Object was in full shadow at epoch
Visualization orbit readout
Latitude
Unknown
Longitude
Unknown
Altitude
Unknown
Speed
Unknown
Apparent Right ascension
Unknown
Apparent Declination
Unknown
Sunlit
N/A
Visualization observer readout
Local Sidereal Time
09:59:35
Azimuth
Unknown
Elevation
Unknown
Doppler factor
Unknown
Orbital elements
Apogee altitude
1,270.813 km
Perigee altitude
828.443 km
Semi-major axis
7,427.765 km
Eccentricity
0.02978
Inclination
98.4262°
RAAN
298.1546°
Arg. of periapsis
1.4376°
True anomaly
358.67863°
Mean anomaly
358.7556°
Eccentric anomaly
358.71741°
Mean motion
3.39044 °/min
Orbital period
106.18 mins
BSTAR
0.00025008
Loading maneuver chart data...
Computing Atmospheric mass density...

Documentation

Showing up to 5 results
|